SCP
0 0 0 0 0 0 0 0 0 0 0 0 0 0 0 0 0 0 0 0 0 0 0 0 0 0 0 0 0 0 0 0 0 0 0 0 0 0 0 0 0 0 0 0
0 0 0 0 0 0 0 0 0 0 0 0 0 0 0 0 0 0 0 0 0 0 0 0 0 0 0 0 0 0 0 0 0 0 0 0 0 0 0 0 0 0 0 0
0 0 0 0 0 0 0 0 0 0 0 0 0 0 0 0 0 0 0 0 0 0 0 0 0 0 0 0 0 0 0 0 0 0 0 0 0 0 0 0 0 0 0 0
0 0 0 0 0 0 0 0 0 0 0 0 0 0 0 0 0 0 0 0 0 0 0 0 0 0 0 0 0 0 0 0 0 0 0 0 0 0 0 0 0 0 0 0
0 0 0 0 0 0 0 0 0 0 0 0 0 0 0 0 0 0 0 0 0 0 0 0 0 0 0 0 0 0 0 0 0 0 0 0 0 0 0 0 0 0 0 0
0 0 0 0 0 0 0 0 0 -0 0 0 0 0 0 0 0 0 0 0 0 0 0 0 0 0 0 0 0 0 0 0 0 0 0 0 0 0 0 0 0 0 0 0
0 0 0 0 0 0 0 0 0 -0 0 0 0 0 0 0 0 0 0 0 0 0 0 0 0 0 0 0 0 0 0 0 0 0 0 0 0 0 0 0 0 0 0 0
0 0 0 0 0 0 0 0 0 0 0 0 0 0 0 0 0 0 0 0 0 0 0 0 0 0 0 0 0 0 0 0 0 0 0 0 0 0 0 0 0 0 0 0
0 0 0 0 0 0 0 -0 -0 -0 0 0 0 0 0 0 0 0 0 0 0 0 0 0 0 0 0 0 0 0 0 0 0 0 0 0 0 0 0 0 0 0 0 0
0 0 0 0 0 0 0 0 -0 -0 -0 0 0 0 0 0 0 0 0 -0 0 0 0 0 0 0 0 0 0 0 0 0 0 0 0 0 0 0 0 0 0 0 0 0
0 0 0 0 0 0 0 0 0 0 0 0 0 0 0 0 0 0 0 -0 -0 0 0 0 0 0 0 0 0 0 0 0 0 0 0 0 0 0 0 0 0 0 0 0
0 0 0 0 0 0 0 0 0 0 0 0 0 0 0 0 0 0 0 0 -0 0 0 0 0 0 0 0 0 0 0 0 0 0 0 0 0 0 0 0 0 0 0 0
0 0 0 0 0 0 0 0 0 0 0 0 0 0 0 0 0 0 0 0 0 0 0 0 0 0 0 0 0 0 0 0 0 0 0 0 0 0 0 0 0 0 0 0
0 0 0 0 0 0 0 0 0 0 0 0 0 0 0 0 0 0 0 0 0 0 0 0 0 0 0 0 0 0 0 0 0 0 0 0 0 0 0 0 0 0 0 0
0 0 0 0 0 0 0 0 0 0 0 0 0 0 0 0 0 0 0 0 0 0 0 0 0 0 0 0 0 0 0 0 0 0 0 0 0 0 0 0 0 0 0 0
0 0 0 0 0 0 0 0 0 0 0 0 0 0 0 0 0 0 0 0 0 0 0 0 0 0 0 0 0 0 0 0 0 0 0 0 0 0 0 0 0 0 0 0
0 0 0 0 0 0 0 0 0 0 0 0 0 0 0 0 0 0 0 0 0 0 0 0 0 0 0 0 0 0 0 0 0 0 0 0 0 0 0 0 0 0 0 0
-0 0 0 0 0 0 0 0 0 0 0 0 0 0 0 0 0 0 0 0 0 0 0 0 0 0 0 0 0 0 0 0 0 0 0 0 0 0 0 0 0 0 0 0
0 0 0 0 0 0 0 0 0 0 0 0 0 0 0 0 0 0 0 0 0 0 0 0 0 0 0 0 0 0 0 0 0 0 0 0 0 0 0 0 0 0 0 0
0 0 0 0 0 0 0 0 0 0 0 0 0 0 0 0 0 0 0 0 0 0 0 0 0 0 0 0 0 0 0 0 0 0 0 0 0 0 0 0 0 0 0 0
0 0 0 0 0 0 0 0 0 0 0 0 0 0 0 0 0 0 0 0 0 0 0 0 -0 -0 -0 0 0 0 0 0 0 0 0 0 0 0 0 0 0 0 0 0
0 0 0 0 0 0 0 0 0 0 0 0 0 0 0 0 0 0 0 0 0 0 0 0 0 0 0 0 0 0 0 0 0 0 0 0 0 0 0 0 0 0 0 0
-0 -0 0 0 0 0 0 0 0 0 0 0 0 0 0 0 0 0 0 0 0 0 0 0 0 0 0 0 0 0 0 0 0 0 0 0 0 0 0 0 0 0 0 0
0 0 0 0 0 0 0 0 0 0 0 0 0 0 0 0 0 0 0 0 0 0 0 0 0 0 0 0 0 0 0 0 0 0 0 0 0 0 0 0 0 0 0 0
0 0 0 0 0 0 0 0 0 0 0 0 0 0 0 0 0 0 0 0 0 0 0 0 0 0 0 0 0 0 0 0 0 0 0 0 0 0 0 0 0 0 0 0
0 0 0 0 0 0 0 0 0 0 0 0 0 0 0 0 0 0 0 0 0 0 0 0 0 0 0 0 0 0 0 0 0 0 0 0 0 0 0 0 0 0 0 0
0 0 0 0 0 0 0 0 0 0 0 0 0 0 0 0 0 0 0 0 0 0 0 0 0 0 0 0 0 0 0 0 0 0 0 0 0 0 0 0 0 0 0 0
Wind_Speed
4 3 3 4 4 7 7 7 8 7 7 9 6 5 5 5 6 6 7 7 8 8 7 6 6 6 5 5 5 6 6 5 5 4 4 4 3 3 3 3 3 3 3 2
1 1 2 3 5 6 7 5 6 5 8 7 3 3 4 5 8 8 8 8 8 8 8 8 8 7 6 6 6 6 6 5 5 5 4 4 3 3 3 3 2 3 3 2
2 2 1 4 7 7 5 6 7 9 9 3 2 5 7 8 8 9 9 8 9 9 9 8 8 8 8 7 6 6 6 5 5 5 4 4 4 4 3 2 2 3 2 2
2 1 4 8 3 5 5 6 6 6 6 5 6 5 4 6 8 8 8 8 8 8 7 6 6 7 7 6 7 6 6 5 5 5 5 4 4 4 3 2 2 2 1 2
4 2 5 7 3 4 5 5 6 7 5 3 3 3 1 4 7 8 8 8 7 8 7 7 8 8 8 7 6 6 6 6 6 6 6 5 4 4 2 3 2 2 2 2
4 4 6 8 4 3 4 4 4 6 6 5 6 3 5 4 5 5 5 6 6 6 7 8 7 8 9 8 7 7 6 6 5 6 6 6 5 4 2 3 3 3 2 1
5 4 8 7 2 4 4 7 3 5 6 8 7 6 3 4 5 5 6 6 7 8 7 7 8 9 8 7 7 6 5 5 5 5 5 5 4 3 3 3 3 3 2 1
5 4 8 3 4 6 7 3 2 4 5 6 5 3 4 5 6 6 6 6 7 7 6 6 8 9 8 7 6 6 6 6 5 5 5 5 5 4 3 4 4 3 2 1
8 8 5 2 5 4 2 2 3 4 4 6 5 3 4 5 6 6 6 7 6 7 6 5 6 8 8 6 7 7 7 6 5 5 4 4 5 5 4 3 3 2 2 1
3 6 5 4 3 3 3 3 3 3 4 6 6 5 5 5 5 5 5 6 6 7 7 5 5 5 6 6 7 8 7 6 5 5 4 3 3 4 4 3 3 2 2 2
4 5 4 4 3 3 2 1 2 2 3 6 7 6 6 6 6 6 5 5 6 7 6 6 5 4 5 6 8 8 7 5 5 5 5 4 3 2 3 3 4 4 3 3
7 7 5 5 4 2 3 3 4 4 3 4 6 6 6 5 5 6 6 5 6 5 6 5 6 5 5 6 7 8 6 5 4 4 4 3 3 2 1 2 2 3 3 4
6 3 4 4 2 2 3 3 3 4 5 5 4 5 6 5 5 6 6 6 7 6 6 6 6 5 5 6 7 7 7 6 4 4 4 4 4 4 2 1 2 1 1 3
3 2 2 3 3 2 3 3 3 3 3 4 5 5 6 5 5 6 6 6 6 6 6 6 6 5 5 6 7 6 6 6 6 4 4 4 4 3 3 3 2 1 1 1
3 4 4 2 1 2 3 5 5 4 4 4 4 6 6 7 6 5 5 5 6 6 5 6 6 5 5 6 7 7 6 4 4 4 4 3 3 3 3 3 2 1 0 1
1 2 3 3 3 3 4 5 6 5 4 4 4 5 5 5 5 5 5 6 7 7 6 6 6 5 6 6 6 5 4 7 6 4 4 4 3 3 3 3 2 2 1 1
3 3 3 4 4 4 4 5 6 6 5 5 5 5 6 6 5 5 4 4 5 5 5 6 6 5 6 6 6 5 4 5 7 5 4 4 4 4 3 3 3 2 2 2
5 6 6 7 7 5 4 4 4 5 5 5 6 6 7 7 7 6 5 4 4 3 3 4 5 6 6 6 5 5 4 4 4 4 4 3 3 3 3 3 3 3 2 2
3 4 4 5 5 5 5 4 4 4 5 6 7 7 6 6 6 6 5 6 6 5 4 4 8 7 6 6 7 5 5 5 4 3 3 4 3 3 3 3 3 2 2 2
1 2 3 3 3 4 4 4 4 4 4 6 6 6 5 5 6 6 6 5 5 4 5 6 6 5 5 6 7 4 5 5 5 4 3 3 3 3 3 3 3 2 2 2
1 2 3 3 3 3 4 5 5 5 4 6 7 7 7 6 6 6 6 4 3 4 6 8 6 5 5 6 7 5 5 5 4 4 4 3 3 3 2 2 2 2 2 2
2 3 3 3 3 2 2 4 5 5 5 5 5 6 6 6 6 5 4 4 5 7 5 5 4 7 8 8 5 5 5 5 4 4 3 3 3 3 3 3 2 2 2 2
2 2 3 3 4 3 2 3 4 5 5 6 6 7 7 6 5 6 4 3 4 8 6 5 7 10 11 6 5 5 5 5 4 4 3 3 3 3 3 3 2 2 2 2
1 2 2 2 3 4 3 2 2 3 4 4 4 6 6 5 3 3 3 7 8 8 5 7 10 11 10 5 5 5 4 4 3 3 3 3 2 2 2 2 2 1 2 2
2 2 3 3 3 3 3 3 3 3 3 2 2 3 3 4 4 4 4 6 8 8 4 8 11 11 7 5 5 5 4 4 4 4 3 3 2 2 2 2 2 1 1 2
2 2 2 2 2 2 2 3 3 3 3 2 1 2 2 2 3 4 4 5 7 7 5 4 6 7 5 5 5 5 4 4 3 3 3 3 2 2 2 1 1 1 1 1
2 1 2 1 1 1 2 3 3 3 3 4 3 2 3 3 3 4 5 5 5 5 4 4 4 4 4 5 5 4 4 3 3 3 3 2 2 2 2 2 1 1 1 2
Wind_Direction
225 219 176 202 195 179 187 192 196 227 231 249 239 217 203 178 163 159 167 169 171 174 176 172 168 166 163 159 156 151 145 149 158 151 135 125 118 113 106 100 101 98 91 75
283 236 201 239 236 206 210 208 219 238 258 250 230 181 173 172 169 174 179 181 176 172 172 176 176 173 166 164 162 152 153 158 152 138 128 126 125 118 107 100 94 88 86 85
250 305 35 273 234 205 202 202 189 214 237 220 197 196 194 188 184 186 183 178 177 178 180 181 179 172 170 167 155 152 154 153 151 145 141 143 136 122 122 122 107 97 92 91
150 84 238 248 240 190 197 227 211 223 234 202 206 204 195 186 189 190 183 177 178 176 174 171 163 157 149 145 149 152 153 157 157 152 150 144 135 136 140 129 123 126 122 116
136 188 272 289 256 180 182 254 221 218 229 194 146 83 290 209 190 190 184 177 175 173 166 156 155 152 143 143 146 150 161 167 166 159 153 149 149 151 150 135 128 128 122 120
137 166 232 248 249 184 130 276 246 194 193 165 130 144 249 211 178 167 156 153 152 150 144 148 150 145 144 151 155 168 173 170 160 156 156 159 161 157 147 142 143 126 103 106
162 202 253 254 251 129 164 240 231 179 175 165 177 197 204 160 158 153 147 146 146 145 148 155 150 146 150 156 173 174 157 147 144 150 154 154 150 146 139 132 119 113 107 76
154 188 249 246 145 178 213 234 185 181 176 172 179 147 135 143 144 140 133 133 141 144 146 145 150 151 155 172 169 145 140 139 143 145 148 143 138 133 130 129 123 122 111 64
185 210 238 221 213 237 201 199 203 182 177 160 152 154 143 141 143 142 140 142 142 144 141 144 157 160 166 170 148 140 138 142 144 139 134 138 143 141 132 132 137 147 146 165
230 263 262 261 257 259 215 208 205 180 163 154 156 155 145 142 145 144 142 145 140 137 141 151 158 163 164 151 147 142 145 147 144 140 135 133 137 144 146 156 158 161 167 187
238 264 296 292 248 229 217 178 153 148 153 155 146 150 153 151 154 153 144 144 143 147 152 158 152 149 144 148 147 144 146 148 146 146 149 147 145 155 165 181 179 175 188 186
219 218 198 241 249 196 169 180 171 149 134 137 146 151 147 149 152 149 145 142 140 143 146 150 148 146 146 150 150 146 146 151 154 152 148 147 143 107 72 143 167 174 173 173
219 219 208 236 244 198 181 186 171 160 156 146 137 141 143 144 146 144 144 146 152 156 153 148 147 149 153 153 151 153 157 158 154 153 153 155 156 153 145 41 57 149 194 190
217 181 231 236 228 196 157 141 118 113 124 132 133 132 134 133 138 146 156 161 153 146 145 147 148 157 160 155 151 151 152 156 155 160 161 161 164 165 162 161 166 283 304 260
232 203 199 193 149 131 128 125 121 123 120 118 128 137 143 147 155 161 154 144 136 136 144 149 153 161 156 152 149 151 151 154 155 154 153 153 153 151 156 163 170 188 313 324
191 137 145 149 166 153 140 144 149 160 154 147 147 153 154 151 146 141 143 148 148 160 167 164 169 166 154 149 145 146 153 157 151 149 148 147 150 155 162 168 175 185 209 235
153 178 172 174 185 185 178 176 172 170 166 164 165 152 138 131 130 137 150 159 161 167 169 168 167 156 154 152 148 148 146 154 150 146 155 161 164 170 175 176 186 203 227 232
201 201 191 184 185 186 184 175 173 172 172 171 154 147 149 155 162 165 158 140 126 125 156 163 154 150 153 152 148 146 147 150 153 157 159 162 168 172 172 180 194 208 237 253
213 198 191 187 182 175 176 178 180 174 165 156 156 162 167 168 162 154 145 144 152 168 189 167 156 149 153 160 150 145 147 148 147 150 157 163 162 168 175 183 197 212 220 229
190 160 160 161 159 164 171 170 162 160 161 155 151 152 157 164 158 153 153 169 190 187 168 159 155 153 157 160 153 147 150 152 153 154 153 158 169 179 186 191 197 208 217 225
171 158 150 152 156 165 166 160 156 161 162 157 160 169 171 168 163 157 156 179 208 160 153 158 156 158 158 159 154 148 151 152 154 158 162 168 172 179 188 195 203 210 216 228
179 170 167 158 152 161 168 159 156 154 154 159 162 159 155 160 164 164 178 185 174 162 155 160 161 164 163 156 149 150 155 156 158 159 163 167 173 183 194 199 206 215 217 221
175 169 163 163 165 165 153 153 157 157 162 169 169 168 169 173 169 165 187 193 162 166 159 165 166 164 160 150 149 154 157 160 164 167 170 173 176 182 190 199 208 211 216 222
148 152 155 147 132 132 146 174 165 159 158 163 170 169 160 155 168 189 167 163 165 163 160 165 165 162 154 146 149 153 157 159 163 163 162 164 167 173 181 188 202 222 227 231
148 139 130 129 139 166 174 158 135 131 131 133 144 158 160 159 165 170 154 157 163 159 152 165 164 159 151 147 151 153 154 157 160 157 156 157 163 168 178 189 199 215 230 237
134 142 160 171 174 172 161 150 150 153 143 136 133 140 136 132 138 140 141 148 152 152 148 150 154 151 147 147 146 145 144 151 155 151 152 154 159 162 173 190 208 215 229 243
105 108 100 77 63 131 148 152 155 162 159 155 155 157 146 138 136 138 138 139 142 142 142 142 144 146 145 143 141 141 142 145 147 149 150 153 160 171 187 201 215 223 230 241